{"data":{"norad_id":65515,"epoch":"2026-09-20T05:17:32.641152Z","epoch_age_seconds":136124,"freshness":"FRESH","line1":"1 65515U 25198Z   26263.22051668  .00011250  00000+0  34360-3 0  9993","line2":"2 65515  53.1608  85.2851 0001504  87.0064 273.1111 15.34398937 58439","mean_motion":15.34398937,"eccentricity":0.0001504,"inclination_deg":53.1608,"raan_deg":85.2851,"arg_perigee_deg":87.0064,"mean_anomaly_deg":273.1111,"bstar":0.0003436,"rev_number":5843,"period_min":93.84782309713,"perigee_km":461.67753682164,"apogee_km":463.73526251626,"semimajor_km":6840.8433996689,"source":"CELESTRAK","updated_at":"2026-09-21T09:00:35.646153Z"}}